{"data":{"norad_id":52422,"epoch":"2026-09-20T22:38:24.347904Z","epoch_age_seconds":85934,"freshness":"FRESH","line1":"1 52422U 22047AE  26263.94333736  .00042770  00000+0  56884-3 0  9990","line2":"2 52422  97.3355 357.3276 0004878  81.4672 278.7137 15.58056101246028","mean_motion":15.58056101,"eccentricity":0.0004878,"inclination_deg":97.3355,"raan_deg":357.3276,"arg_perigee_deg":81.4672,"mean_anomaly_deg":278.7137,"bstar":0.00056884,"rev_number":24602,"period_min":92.42285942565,"perigee_km":389.98034625019,"apogee_km":396.58654403647,"semimajor_km":6771.4204451433,"source":"CELESTRAK","updated_at":"2026-09-21T09:00:08.574161Z"}}